Time,TemperatureF,DewpointF,PressureIn,WindDirection,WindDirectionDegrees,WindSpeedMPH,WindSpeedGustMPH,Humidity,HourlyPrecipIn,Conditions,Clouds,dailyrainin,SoftwareType,DateUTC
2013-01-27 00:04:00,-999.0,-99.9,30.20,NNW,332,19.0,27.0,-999,-99.99,,,-99.99,,2013-01-27 05:04:00,
2013-01-27 00:12:00,19.0,-99.9,30.20,NW,313,17.0,26.0,-999,-99.99,,,-99.99,,2013-01-27 05:12:00,
2013-01-27 00:22:00,-999.0,-99.9,30.20,NW,321,21.0,26.0,-999,-99.99,,,-99.99,,2013-01-27 05:22:00,
2013-01-27 00:32:00,-999.0,-99.9,30.20,NW,323,17.0,26.0,-999,-99.99,,,-99.99,,2013-01-27 05:32:00,
2013-01-27 00:42:00,-999.0,-99.9,30.20,NW,326,19.0,32.0,-999,-99.99,,,-99.99,,2013-01-27 05:42:00,
2013-01-27 00:52:00,-999.0,-99.9,30.20,NNW,327,22.0,30.0,-999,-99.99,,,-99.99,,2013-01-27 05:52:00,
2013-01-27 01:02:00,-999.0,-99.9,30.21,NNW,333,21.0,28.0,-999,-99.99,,,-99.99,,2013-01-27 06:02:00,
2013-01-27 01:11:00,19.0,-99.9,30.21,NNW,327,20.0,31.0,-999,-99.99,,,-99.99,,2013-01-27 06:11:00,
2013-01-27 01:22:00,-999.0,-99.9,30.21,NW,322,20.0,28.0,-999,-99.99,,,-99.99,,2013-01-27 06:22:00,
2013-01-27 01:32:00,-999.0,-99.9,30.22,NW,323,20.0,30.0,-999,-99.99,,,-99.99,,2013-01-27 06:32:00,
2013-01-27 01:42:00,19.0,-99.9,30.22,NW,316,20.0,33.0,-999,-99.99,,,-99.99,,2013-01-27 06:42:00,
2013-01-27 01:52:00,-999.0,-99.9,30.22,NW,322,17.0,32.0,-999,-99.99,,,-99.99,,2013-01-27 06:52:00,
2013-01-27 02:02:00,-999.0,-99.9,30.23,NW,315,13.0,33.0,-999,-99.99,,,-99.99,,2013-01-27 07:02:00,
2013-01-27 02:14:00,18.0,-99.9,30.24,NW,319,15.0,26.0,-999,-99.99,,,-99.99,,2013-01-27 07:14:00,
2013-01-27 02:22:00,-999.0,-99.9,30.24,NW,317,17.0,25.0,-999,-99.99,,,-99.99,,2013-01-27 07:22:00,
2013-01-27 02:32:00,-999.0,-99.9,30.24,NNW,327,18.0,28.0,-999,-99.99,,,-99.99,,2013-01-27 07:32:00,
2013-01-27 02:42:00,18.0,-99.9,30.24,NW,324,18.0,25.0,-999,-99.99,,,-99.99,,2013-01-27 07:42:00,
2013-01-27 02:52:00,-999.0,-99.9,30.24,NW,321,23.0,31.0,-999,-99.99,,,-99.99,,2013-01-27 07:52:00,
2013-01-27 03:02:00,-999.0,-99.9,30.24,NW,322,24.0,31.0,-999,-99.99,,,-99.99,,2013-01-27 08:02:00,
2013-01-27 03:12:00,18.0,-99.9,30.24,NW,323,18.0,33.0,-999,-99.99,,,-99.99,,2013-01-27 08:12:00,
2013-01-27 03:22:00,-999.0,-99.9,30.25,NNW,329,20.0,28.0,-999,-99.99,,,-99.99,,2013-01-27 08:22:00,
2013-01-27 03:32:00,-999.0,-99.9,30.25,NNW,328,22.0,30.0,-999,-99.99,,,-99.99,,2013-01-27 08:32:00,
2013-01-27 03:42:00,18.0,-99.9,30.25,NW,322,19.0,31.0,-999,-99.99,,,-99.99,,2013-01-27 08:42:00,
2013-01-27 03:52:00,-999.0,-99.9,30.25,NW,314,19.0,30.0,-999,-99.99,,,-99.99,,2013-01-27 08:52:00,
2013-01-27 04:03:00,-999.0,-99.9,30.26,NW,324,16.0,31.0,-999,-99.99,,,-99.99,,2013-01-27 09:03:00,
2013-01-27 04:11:00,18.0,-99.9,30.26,NW,318,19.0,34.0,-999,-99.99,,,-99.99,,2013-01-27 09:11:00,
2013-01-27 04:22:00,-999.0,-99.9,30.26,NNW,332,17.0,32.0,-999,-99.99,,,-99.99,,2013-01-27 09:22:00,
2013-01-27 04:32:00,-999.0,-99.9,30.26,NW,324,19.0,28.0,-999,-99.99,,,-99.99,,2013-01-27 09:32:00,
2013-01-27 04:42:00,18.0,-99.9,30.26,NNW,328,15.0,29.0,-999,-99.99,,,-99.99,,2013-01-27 09:42:00,
2013-01-27 04:52:00,-999.0,-99.9,30.26,NW,321,17.0,29.0,-999,-99.99,,,-99.99,,2013-01-27 09:52:00,
2013-01-27 05:01:00,-999.0,-99.9,30.26,NW,322,18.0,34.0,-999,-99.99,,,-99.99,,2013-01-27 10:01:00,
2013-01-27 05:11:00,18.0,-99.9,30.27,NW,325,20.0,29.0,-999,-99.99,,,-99.99,,2013-01-27 10:11:00,
2013-01-27 05:21:00,-999.0,-99.9,30.27,NNW,332,21.0,26.0,-999,-99.99,,,-99.99,,2013-01-27 10:21:00,
2013-01-27 05:32:00,-999.0,-99.9,30.27,NNW,329,22.0,31.0,-999,-99.99,,,-99.99,,2013-01-27 10:32:00,
2013-01-27 05:42:00,-999.0,-99.9,30.28,NNW,332,20.0,33.0,-999,-99.99,,,-99.99,,2013-01-27 10:42:00,
2013-01-27 05:52:00,-999.0,-99.9,30.28,NW,325,21.0,28.0,-999,-99.99,,,-99.99,,2013-01-27 10:52:00,
2013-01-27 06:01:00,-999.0,-99.9,30.29,NNW,335,18.0,29.0,-999,-99.99,,,-99.99,,2013-01-27 11:01:00,
2013-01-27 06:11:00,18.0,-99.9,30.29,NNW,339,18.0,27.0,-999,-99.99,,,-99.99,,2013-01-27 11:11:00,
2013-01-27 06:22:00,-999.0,-99.9,30.29,NNW,333,22.0,30.0,-999,-99.99,,,-99.99,,2013-01-27 11:22:00,
2013-01-27 06:32:00,-999.0,-99.9,30.30,NNW,335,19.0,27.0,-999,-99.99,,,-99.99,,2013-01-27 11:32:00,
2013-01-27 06:42:00,18.0,-99.9,30.30,NNW,328,21.0,31.0,-999,-99.99,,,-99.99,,2013-01-27 11:42:00,
2013-01-27 06:52:00,-999.0,-99.9,30.30,NW,322,21.0,32.0,-999,-99.99,,,-99.99,,2013-01-27 11:52:00,
2013-01-27 07:03:00,-999.0,-99.9,30.31,NNW,331,18.0,31.0,-999,-99.99,,,-99.99,,2013-01-27 12:03:00,
2013-01-27 07:12:00,-999.0,-99.9,30.31,NW,325,17.0,26.0,-999,-99.99,,,-99.99,,2013-01-27 12:12:00,
2013-01-27 07:22:00,-999.0,-99.9,30.32,NNW,335,19.0,26.0,-999,-99.99,,,-99.99,,2013-01-27 12:22:00,
2013-01-27 07:33:00,-999.0,-99.9,30.32,NNW,327,19.0,30.0,-999,-99.99,,,-99.99,,2013-01-27 12:33:00,
2013-01-27 07:42:00,18.0,-99.9,30.32,NNW,327,22.0,31.0,-999,-99.99,,,-99.99,,2013-01-27 12:42:00,
2013-01-27 07:52:00,-999.0,-99.9,30.32,NNW,332,16.0,27.0,-999,-99.99,,,-99.99,,2013-01-27 12:52:00,
2013-01-27 08:02:00,-999.0,-99.9,30.32,NW,321,15.0,27.0,-999,-99.99,,,-99.99,,2013-01-27 13:02:00,
2013-01-27 08:12:00,19.0,-99.9,30.32,NW,323,13.0,21.0,-999,-99.99,,,-99.99,,2013-01-27 13:12:00,
2013-01-27 08:22:00,-999.0,-99.9,30.33,NW,321,15.0,27.0,-999,-99.99,,,-99.99,,2013-01-27 13:22:00,
2013-01-27 08:32:00,-999.0,-99.9,30.34,NW,321,17.0,26.0,-999,-99.99,,,-99.99,,2013-01-27 13:32:00,
2013-01-27 08:42:00,19.0,-99.9,30.34,NW,318,17.0,28.0,-999,-99.99,,,-99.99,,2013-01-27 13:42:00,
2013-01-27 08:52:00,-999.0,-99.9,30.34,NNW,328,18.0,27.0,-999,-99.99,,,-99.99,,2013-01-27 13:52:00,
2013-01-27 09:02:00,-999.0,-99.9,30.35,NNW,335,15.0,23.0,-999,-99.99,,,-99.99,,2013-01-27 14:02:00,
2013-01-27 09:12:00,20.0,-99.9,30.35,NNW,329,17.0,28.0,-999,-99.99,,,-99.99,,2013-01-27 14:12:00,
2013-01-27 09:22:00,-999.0,-99.9,30.35,NNW,331,17.0,25.0,-999,-99.99,,,-99.99,,2013-01-27 14:22:00,
2013-01-27 09:33:00,-999.0,-99.9,30.36,NNW,327,15.0,21.0,-999,-99.99,,,-99.99,,2013-01-27 14:33:00,
2013-01-27 09:43:00,20.0,-99.9,30.36,NNW,332,14.0,22.0,-999,-99.99,,,-99.99,,2013-01-27 14:43:00,
2013-01-27 09:53:00,-999.0,-99.9,30.37,NNW,327,16.0,22.0,-999,-99.99,,,-99.99,,2013-01-27 14:53:00,
2013-01-27 10:02:00,-999.0,-99.9,30.37,NW,323,14.0,25.0,-999,-99.99,,,-99.99,,2013-01-27 15:02:00,
2013-01-27 10:12:00,21.0,-99.9,30.37,NNW,332,14.0,23.0,-999,-99.99,,,-99.99,,2013-01-27 15:12:00,
2013-01-27 10:22:00,-999.0,-99.9,30.37,NNW,327,16.0,24.0,-999,-99.99,,,-99.99,,2013-01-27 15:22:00,
2013-01-27 10:33:00,-999.0,-99.9,30.37,NNW,336,15.0,22.0,-999,-99.99,,,-99.99,,2013-01-27 15:33:00,
2013-01-27 10:43:00,22.0,-99.9,30.37,NNW,334,12.0,22.0,-999,-99.99,,,-99.99,,2013-01-27 15:43:00,
2013-01-27 10:53:00,-999.0,-99.9,30.37,NNW,331,12.0,20.0,-999,-99.99,,,-99.99,,2013-01-27 15:53:00,
2013-01-27 11:03:00,-999.0,-99.9,30.38,North,353,16.0,22.0,-999,-99.99,,,-99.99,,2013-01-27 16:03:00,
2013-01-27 11:12:00,22.0,-99.9,30.37,NNW,337,12.0,19.0,-999,-99.99,,,-99.99,,2013-01-27 16:12:00,
2013-01-27 11:22:00,-999.0,-99.9,30.37,NNW,334,11.0,17.0,-999,-99.99,,,-99.99,,2013-01-27 16:22:00,
2013-01-27 11:33:00,-999.0,-99.9,30.37,NNW,341,14.0,21.0,-999,-99.99,,,-99.99,,2013-01-27 16:33:00,
2013-01-27 11:42:00,24.0,-99.9,30.37,NNW,334,11.0,19.0,-999,-99.99,,,-99.99,,2013-01-27 16:42:00,
2013-01-27 11:53:00,-999.0,-99.9,30.37,NNW,337,11.0,19.0,-999,-99.99,,,-99.99,,2013-01-27 16:53:00,
2013-01-27 12:02:00,-999.0,-99.9,30.37,NNW,332,13.0,20.0,-999,-99.99,,,-99.99,,2013-01-27 17:02:00,
2013-01-27 12:12:00,-999.0,-99.9,30.37,NNW,337,11.0,21.0,-999,-99.99,,,-99.99,,2013-01-27 17:12:00,
2013-01-27 12:22:00,-999.0,-99.9,30.37,NNW,338,13.0,21.0,-999,-99.99,,,-99.99,,2013-01-27 17:22:00,
2013-01-27 12:33:00,-999.0,-99.9,30.37,NNW,328,14.0,22.0,-999,-99.99,,,-99.99,,2013-01-27 17:33:00,
2013-01-27 12:42:00,25.0,-99.9,30.37,NNW,333,14.0,22.0,-999,-99.99,,,-99.99,,2013-01-27 17:42:00,
2013-01-27 12:53:00,-999.0,-99.9,30.37,NNW,336,11.0,18.0,-999,-99.99,,,-99.99,,2013-01-27 17:53:00,
2013-01-27 13:03:00,-999.0,-99.9,30.37,NNW,338,12.0,20.0,-999,-99.99,,,-99.99,,2013-01-27 18:03:00,
2013-01-27 13:12:00,26.0,-99.9,30.37,NNW,329,13.0,17.0,-999,-99.99,,,-99.99,,2013-01-27 18:12:00,
2013-01-27 13:23:00,-999.0,-99.9,30.37,North,350,12.0,18.0,-999,-99.99,,,-99.99,,2013-01-27 18:23:00,
2013-01-27 13:32:00,-999.0,-99.9,30.37,NNW,335,10.0,15.0,-999,-99.99,,,-99.99,,2013-01-27 18:32:00,
2013-01-27 13:42:00,27.0,-99.9,30.37,NW,323,8.0,15.0,-999,-99.99,,,-99.99,,2013-01-27 18:42:00,
2013-01-27 13:53:00,-999.0,-99.9,30.37,NNW,335,10.0,15.0,-999,-99.99,,,-99.99,,2013-01-27 18:53:00,
2013-01-27 14:02:00,-999.0,-99.9,30.36,NW,323,9.0,13.0,-999,-99.99,,,-99.99,,2013-01-27 19:02:00,
2013-01-27 14:12:00,27.0,-99.9,30.36,NNW,331,8.0,13.0,-999,-99.99,,,-99.99,,2013-01-27 19:12:00,
2013-01-27 14:22:00,-999.0,-99.9,30.36,NW,311,6.0,14.0,-999,-99.99,,,-99.99,,2013-01-27 19:22:00,
2013-01-27 14:33:00,-999.0,-99.9,30.36,NW,314,8.0,13.0,-999,-99.99,,,-99.99,,2013-01-27 19:33:00,
2013-01-27 14:42:00,28.0,-99.9,30.36,NW,323,9.0,12.0,-999,-99.99,,,-99.99,,2013-01-27 19:42:00,
2013-01-27 14:52:00,-999.0,-99.9,30.36,NW,321,7.0,11.0,-999,-99.99,,,-99.99,,2013-01-27 19:52:00,
2013-01-27 15:03:00,-999.0,-99.9,30.36,NW,318,7.0,13.0,-999,-99.99,,,-99.99,,2013-01-27 20:03:00,
2013-01-27 15:12:00,29.0,-99.9,30.36,NNW,332,7.0,11.0,-999,-99.99,,,-99.99,,2013-01-27 20:12:00,
2013-01-27 15:22:00,-999.0,-99.9,30.36,NNW,334,9.0,13.0,-999,-99.99,,,-99.99,,2013-01-27 20:22:00,
2013-01-27 15:33:00,-999.0,-99.9,30.36,NW,321,6.0,14.0,-999,-99.99,,,-99.99,,2013-01-27 20:33:00,
2013-01-27 15:43:00,-999.0,-99.9,30.36,NW,321,10.0,14.0,-999,-99.99,,,-99.99,,2013-01-27 20:43:00,
2013-01-27 15:52:00,-999.0,-99.9,30.36,NW,320,8.0,14.0,-999,-99.99,,,-99.99,,2013-01-27 20:52:00,
2013-01-27 16:02:00,-999.0,-99.9,30.36,WNW,298,7.0,15.0,-999,-99.99,,,-99.99,,2013-01-27 21:02:00,
2013-01-27 16:12:00,30.0,-99.9,30.36,NW,314,7.0,14.0,-999,-99.99,,,-99.99,,2013-01-27 21:12:00,
2013-01-27 16:23:00,-999.0,-99.9,30.36,WNW,303,8.0,13.0,-999,-99.99,,,-99.99,,2013-01-27 21:23:00,
2013-01-27 16:33:00,-999.0,-99.9,30.36,NW,304,5.0,11.0,-999,-99.99,,,-99.99,,2013-01-27 21:33:00,
2013-01-27 16:43:00,29.0,-99.9,30.36,NW,304,6.0,11.0,-999,-99.99,,,-99.99,,2013-01-27 21:43:00,
2013-01-27 16:52:00,-999.0,-99.9,30.36,NW,310,6.0,13.0,-999,-99.99,,,-99.99,,2013-01-27 21:52:00,
2013-01-27 17:03:00,-999.0,-99.9,30.37,NW,308,9.0,14.0,-999,-99.99,,,-99.99,,2013-01-27 22:03:00,
2013-01-27 17:12:00,-999.0,-99.9,30.37,WNW,296,6.0,12.0,-999,-99.99,,,-99.99,,2013-01-27 22:12:00,
2013-01-27 17:22:00,-999.0,-99.9,30.38,WNW,299,8.0,12.0,-999,-99.99,,,-99.99,,2013-01-27 22:22:00,
2013-01-27 17:33:00,-999.0,-99.9,30.38,WNW,296,8.0,13.0,-999,-99.99,,,-99.99,,2013-01-27 22:33:00,
2013-01-27 17:42:00,29.0,-99.9,30.38,WNW,303,8.0,18.0,-999,-99.99,,,-99.99,,2013-01-27 22:42:00,
2013-01-27 17:52:00,-999.0,-99.9,30.39,NW,310,8.0,14.0,-999,-99.99,,,-99.99,,2013-01-27 22:52:00,
2013-01-27 18:02:00,-999.0,-99.9,30.40,NW,308,10.0,17.0,-999,-99.99,,,-99.99,,2013-01-27 23:02:00,
2013-01-27 18:12:00,29.0,-99.9,30.40,NW,308,10.0,13.0,-999,-99.99,,,-99.99,,2013-01-27 23:12:00,
2013-01-27 18:22:00,-999.0,-99.9,30.40,NW,312,6.0,13.0,-999,-99.99,,,-99.99,,2013-01-27 23:22:00,
2013-01-27 18:32:00,-999.0,-99.9,30.41,NW,311,7.0,10.0,-999,-99.99,,,-99.99,,2013-01-27 23:32:00,
2013-01-27 18:42:00,-999.0,-99.9,30.42,NW,318,9.0,15.0,-999,-99.99,,,-99.99,,2013-01-27 23:42:00,
2013-01-27 18:53:00,-999.0,-99.9,30.42,NW,315,8.0,14.0,-999,-99.99,,,-99.99,,2013-01-27 23:53:00,
2013-01-27 19:02:00,-999.0,-99.9,30.42,NW,307,9.0,11.0,-999,-99.99,,,-99.99,,2013-01-28 00:02:00,
2013-01-27 19:12:00,29.0,-99.9,30.42,NW,309,6.0,11.0,-999,-99.99,,,-99.99,,2013-01-28 00:12:00,
2013-01-27 19:22:00,-999.0,-99.9,30.42,WNW,301,9.0,14.0,-999,-99.99,,,-99.99,,2013-01-28 00:22:00,
2013-01-27 19:33:00,-999.0,-99.9,30.42,NW,305,7.0,15.0,-999,-99.99,,,-99.99,,2013-01-28 00:33:00,
2013-01-27 19:42:00,29.0,-99.9,30.43,WNW,303,7.0,11.0,-999,-99.99,,,-99.99,,2013-01-28 00:42:00,
2013-01-27 19:52:00,-999.0,-99.9,30.43,NW,307,10.0,14.0,-999,-99.99,,,-99.99,,2013-01-28 00:52:00,
2013-01-27 20:02:00,-999.0,-99.9,30.43,WNW,290,4.0,10.0,-999,-99.99,,,-99.99,,2013-01-28 01:02:00,
2013-01-27 20:12:00,29.0,-99.9,30.43,WNW,292,7.0,13.0,-999,-99.99,,,-99.99,,2013-01-28 01:12:00,
2013-01-27 20:22:00,-999.0,-99.9,30.43,WNW,302,9.0,14.0,-999,-99.99,,,-99.99,,2013-01-28 01:22:00,
2013-01-27 20:33:00,-999.0,-99.9,30.43,NW,308,11.0,14.0,-999,-99.99,,,-99.99,,2013-01-28 01:33:00,
2013-01-27 20:43:00,29.0,-99.9,30.43,NW,319,9.0,19.0,-999,-99.99,,,-99.99,,2013-01-28 01:43:00,
2013-01-27 20:52:00,-999.0,-99.9,30.43,NW,314,11.0,13.0,-999,-99.99,,,-99.99,,2013-01-28 01:52:00,
2013-01-27 21:02:00,-999.0,-99.9,30.44,NW,318,9.0,17.0,-999,-99.99,,,-99.99,,2013-01-28 02:02:00,
2013-01-27 21:12:00,29.0,-99.9,30.43,NW,326,14.0,20.0,-999,-99.99,,,-99.99,,2013-01-28 02:12:00,
2013-01-27 21:22:00,-999.0,-99.9,30.44,NNW,328,12.0,17.0,-999,-99.99,,,-99.99,,2013-01-28 02:22:00,
2013-01-27 21:32:00,-999.0,-99.9,30.44,NW,322,12.0,19.0,-999,-99.99,,,-99.99,,2013-01-28 02:32:00,
2013-01-27 21:42:00,28.0,-99.9,30.44,NNW,332,14.0,17.0,-999,-99.99,,,-99.99,,2013-01-28 02:42:00,
2013-01-27 21:53:00,-999.0,-99.9,30.44,NW,325,11.0,20.0,-999,-99.99,,,-99.99,,2013-01-28 02:53:00,
2013-01-27 22:02:00,-999.0,-99.9,30.45,NW,318,11.0,19.0,-999,-99.99,,,-99.99,,2013-01-28 03:02:00,
2013-01-27 22:12:00,28.0,-99.9,30.45,NW,322,14.0,20.0,-999,-99.99,,,-99.99,,2013-01-28 03:12:00,
2013-01-27 22:22:00,-999.0,-99.9,30.45,NW,316,11.0,20.0,-999,-99.99,,,-99.99,,2013-01-28 03:22:00,
2013-01-27 22:32:00,-999.0,-99.9,30.44,NW,313,11.0,19.0,-999,-99.99,,,-99.99,,2013-01-28 03:32:00,
2013-01-27 22:42:00,28.0,-99.9,30.44,NW,321,10.0,20.0,-999,-99.99,,,-99.99,,2013-01-28 03:42:00,
2013-01-27 22:53:00,-999.0,-99.9,30.44,NW,316,8.0,16.0,-999,-99.99,,,-99.99,,2013-01-28 03:53:00,
2013-01-27 23:02:00,-999.0,-99.9,30.45,NW,320,7.0,15.0,-999,-99.99,,,-99.99,,2013-01-28 04:02:00,
2013-01-27 23:12:00,27.0,-99.9,30.45,NW,318,11.0,18.0,-999,-99.99,,,-99.99,,2013-01-28 04:12:00,
2013-01-27 23:22:00,-999.0,-99.9,30.45,NW,317,12.0,17.0,-999,-99.99,,,-99.99,,2013-01-28 04:22:00,
2013-01-27 23:32:00,-999.0,-99.9,30.45,NW,319,13.0,17.0,-999,-99.99,,,-99.99,,2013-01-28 04:32:00,
2013-01-27 23:42:00,-999.0,-99.9,30.45,NNW,327,14.0,18.0,-999,-99.99,,,-99.99,,2013-01-28 04:42:00,
2013-01-27 23:52:00,-999.0,-99.9,30.45,NW,321,12.0,19.0,-999,-99.99,,,-99.99,,2013-01-28 04:52:00,